Waarnemingen

Advertentie
Mijn weer
Boulogne, Frankrijk (7002): temperatuur & dauwpunt: 15.01.2017 11:00:00 - 21.01.2017 11:00:00 (CET)Boulogne, Frankrijk (7002): windsnelheid & windstoten: 15.01.2017 11:00:00 - 21.01.2017 11:00:00 (CET)Boulogne, Frankrijk (7002): windrichting: 15.01.2017 11:00:00 - 21.01.2017 11:00:00 (CET)Boulogne, Frankrijk (7002): luchtdruk: 15.01.2017 11:00:00 - 21.01.2017 11:00:00 (CET)Boulogne, Frankrijk (7002): zicht: 15.01.2017 11:00:00 - 21.01.2017 11:00:00 (CET)Boulogne, Frankrijk (7002): neerslag: 15.01.2017 11:00:00 - 21.01.2017 11:00:00 (CET)
Datum & Tijd tt [°C] td [°C] ff [km/u] ff [kn] fx [km/u] fx [kn] dd ppp [hPa] vv [km] rr [mm]
21.01.2017 11:00:00 -0,2 -8,9 13 7 26 14 ZO 1028,8 - 0,0
21.01.2017 10:00:00 -0,7 -8,6 10 6 22 12 OZO 1028,9 15 0,0
21.01.2017 09:00:00 -2,0 -8,1 11 6 18 10 O 1028,9 - 0,0
21.01.2017 08:00:00 -0,9 -9,3 10 6 27 15 OZO 1028,8 - 0,0
21.01.2017 07:00:00 -1,8 -8,3 11 6 27 14 O 1028,9 - 0,0
21.01.2017 06:00:00 -2,1 -8,4 6 3 16 8 O 1029,5 - 0,0
21.01.2017 05:00:00 -1,6 -8,6 3 1 18 10 ONO 1029,5 - 0,0
21.01.2017 04:00:00 -1,3 -8,1 8 5 17 9 O 1029,9 15 0,0
21.01.2017 03:00:00 -0,8 -8,3 9 5 16 9 O 1030,2 - 0,0
21.01.2017 02:00:00 -0,5 -8,0 8 5 22 12 OZO 1030,6 - 0,0
21.01.2017 01:00:00 0,4 -8,3 10 6 37 20 OZO 1030,6 - 0,0
21.01.2017 00:00:00 0,7 -8,3 13 7 28 15 OZO 1030,9 - 0,0
20.01.2017 23:00:00 0,9 -8,1 11 6 32 17 O 1030,8 - 0,0
20.01.2017 22:00:00 1,3 -7,0 9 5 29 16 OZO 1031,0 10 0,0
20.01.2017 21:00:00 1,8 -7,3 12 7 30 16 O 1030,7 - 0,0
20.01.2017 20:00:00 1,4 -6,4 10 6 23 12 OZO 1031,3 - 0,0
20.01.2017 19:00:00 1,3 -6,1 9 5 26 14 O 1031,2 - 0,0
20.01.2017 18:00:00 1,7 -5,2 13 7 26 14 O 1031,3 - 0,0
20.01.2017 17:00:00 2,3 -4,2 13 7 27 14 ONO 1031,2 - 0,0
20.01.2017 16:00:00 3,0 -4,0 15 8 24 13 ONO 1031,4 12 0,0
20.01.2017 15:00:00 3,4 -3,9 16 8 25 14 ONO 1031,6 - 0,0
20.01.2017 14:00:00 4,2 -4,8 7 4 21 12 NO 1031,9 - 0,0
20.01.2017 13:00:00 4,1 -5,9 9 5 29 16 O 1032,5 - 0,0
20.01.2017 12:00:00 2,6 -6,8 18 10 32 18 ONO 1032,9 - 0,0
20.01.2017 11:00:00 1,1 -7,2 21 12 44 24 O 1033,3 - 0,0
20.01.2017 10:00:00 -0,5 -7,3 28 15 40 22 ONO 1033,2 - 0,0
20.01.2017 09:00:00 -1,4 -6,9 23 13 37 20 O 1033,2 - 0,0
20.01.2017 08:00:00 -0,9 -6,7 19 10 30 16 O 1033,1 - 0,0
20.01.2017 07:00:00 -1,5 -6,3 17 9 26 14 ONO 1033,5 - 0,0
20.01.2017 06:00:00 -1,2 -6,6 19 10 28 15 ONO 1033,8 - 0,0
20.01.2017 05:00:00 -0,7 -6,9 18 10 28 15 ONO 1034,1 - 0,0
20.01.2017 04:00:00 -0,5 -7,1 11 6 29 15 O 1034,4 - 0,0
20.01.2017 03:00:00 0,0 -7,3 17 9 35 19 O 1034,4 - 0,0
20.01.2017 02:00:00 0,3 -7,5 20 11 35 19 O 1034,4 - 0,0
20.01.2017 01:00:00 -0,1 -6,5 15 8 34 18 O 1034,7 12 0,0
20.01.2017 00:00:00 0,0 -6,2 15 8 40 21 O 1034,9 - 0,0
19.01.2017 23:00:00 0,3 -5,7 17 9 43 23 O 1035,1 - 0,0
19.01.2017 22:00:00 0,4 -5,2 26 14 45 24 O 1035,1 10 0,0
19.01.2017 21:00:00 0,8 -4,8 32 17 51 28 ONO 1035,0 - 0,0
19.01.2017 20:00:00 1,2 -5,1 29 16 43 23 ONO 1035,0 - 0,0
19.01.2017 19:00:00 1,2 -4,3 28 15 44 24 ONO 1035,0 12 0,0
19.01.2017 18:00:00 1,7 -5,5 26 14 39 21 ONO 1035,0 - 0,0
19.01.2017 17:00:00 2,3 -5,6 23 13 37 20 ONO 1035,0 - 0,0
19.01.2017 16:00:00 2,8 -5,6 22 12 34 18 ONO 1035,1 12 0,0
19.01.2017 15:00:00 3,3 -5,6 16 9 31 17 ONO 1035,3 - 0,0
19.01.2017 14:00:00 3,1 -5,6 20 11 39 21 ONO 1035,5 - 0,0
19.01.2017 13:00:00 2,7 -6,2 26 14 39 21 ONO 1035,9 12 0,0
19.01.2017 12:00:00 1,9 -6,9 24 13 40 22 ONO 1036,4 - 0,0
19.01.2017 11:00:00 0,5 -6,6 23 12 39 21 ONO 1036,5 - 0,0
19.01.2017 10:00:00 -0,5 -6,3 22 12 36 20 ONO 1036,7 10 0,0
19.01.2017 09:00:00 -1,0 -6,4 18 10 41 22 ONO 1036,6 - 0,0
19.01.2017 08:00:00 -0,6 -6,8 26 14 41 22 ONO 1036,4 - 0,0
19.01.2017 07:00:00 -1,1 -5,1 24 13 41 22 ONO 1036,2 - 0,0
19.01.2017 06:00:00 -1,8 -4,5 22 12 41 22 ONO 1036,2 - 0,0
19.01.2017 05:00:00 -2,3 -4,3 25 14 39 21 ONO 1036,7 - 0,0
19.01.2017 04:00:00 -1,9 -5,1 23 12 31 17 ONO 1036,9 7 0,0
19.01.2017 03:00:00 -1,8 -5,3 22 12 34 18 ONO 1037,2 - 0,0
19.01.2017 02:00:00 -1,8 -5,1 24 13 34 18 O 1037,1 - 0,0
19.01.2017 01:00:00 -1,5 -4,8 24 13 35 19 ONO 1037,2 7 0,0
19.01.2017 00:00:00 -1,3 -5,5 23 12 36 19 ONO 1037,4 - 0,0
18.01.2017 23:00:00 -0,7 -5,1 26 14 40 22 ONO 1037,4 - 0,0
18.01.2017 22:00:00 -0,7 -5,9 25 14 41 22 ONO 1037,5 - 0,0
18.01.2017 21:00:00 -0,4 -6,6 25 14 40 22 ONO 1037,7 - 0,0
18.01.2017 20:00:00 -0,3 -5,5 23 13 38 21 ONO 1037,6 - 0,0
18.01.2017 19:00:00 -0,2 -4,3 21 11 35 19 ONO 1037,7 - 0,0
18.01.2017 18:00:00 0,2 -4,6 21 11 35 19 ONO 1037,7 - 0,0
18.01.2017 17:00:00 0,7 -6,2 19 10 33 18 ONO 1037,8 - 0,0
18.01.2017 16:00:00 1,5 -4,6 11 6 34 19 NO 1038,1 10 0,0
18.01.2017 15:00:00 1,7 -5,0 13 7 25 13 ONO 1038,2 - 0,0
18.01.2017 14:00:00 1,6 -4,5 11 6 30 16 ONO 1038,1 - 0,0
18.01.2017 13:00:00 1,3 -6,1 16 8 27 15 ONO 1038,4 10 0,0
18.01.2017 12:00:00 0,5 -5,9 14 8 26 14 ONO 1038,6 - 0,0
18.01.2017 11:00:00 -0,6 -5,8 16 9 26 14 ONO 1039,0 - 0,0
18.01.2017 10:00:00 -1,5 -5,7 12 6 19 10 ONO 1039,0 12 0,0
18.01.2017 09:00:00 -2,5 -5,5 10 5 21 11 O 1038,9 - 0,0
18.01.2017 08:00:00 -2,4 -5,5 13 7 22 12 O 1038,5 - 0,0
18.01.2017 07:00:00 -3,4 -5,3 8 4 13 7 O 1038,4 16 0,0
18.01.2017 06:00:00 -3,0 -5,2 6 4 12 6 O 1038,5 - 0,0
18.01.2017 05:00:00 -2,7 -5,2 5 3 11 6 NO 1038,8 - 0,0
18.01.2017 04:00:00 -3,1 -5,1 3 2 11 6 ONO 1038,9 - 0,0
18.01.2017 03:00:00 -2,7 -5,0 5 3 12 7 OZO 1038,9 - 0,0
18.01.2017 02:00:00 -2,5 -5,0 6 3 16 9 OZO 1038,8 - 0,0
18.01.2017 01:00:00 -2,6 -4,9 6 3 16 9 O 1038,8 - 0,0
18.01.2017 00:00:00 -2,3 -5,3 5 3 17 9 O 1038,9 - 0,0
17.01.2017 23:00:00 -1,6 -5,5 10 6 23 12 O 1038,7 - 0,0
17.01.2017 22:00:00 -1,3 -5,5 12 7 27 15 O 1038,5 6 0,0
17.01.2017 21:00:00 -1,1 -5,3 13 7 28 15 O 1038,3 - 0,0
17.01.2017 20:00:00 -0,7 -5,5 11 6 21 12 OZO 1038,2 - 0,0
17.01.2017 19:00:00 -1,1 -4,3 9 5 19 10 OZO 1037,9 - 0,0
17.01.2017 18:00:00 -0,5 -4,2 8 5 18 10 O 1037,8 - 0,0
17.01.2017 17:00:00 0,6 -4,2 9 5 17 9 O 1037,2 - 0,0
17.01.2017 16:00:00 1,3 -3,2 9 5 16 9 OZO 1037,2 6 0,0
17.01.2017 15:00:00 1,6 -3,7 7 4 14 7 O 1036,9 - 0,0
17.01.2017 14:00:00 1,5 -2,1 3 2 10 6 NO 1036,9 - 0,0
17.01.2017 13:00:00 1,0 -2,2 3 2 12 7 ZO 1037,3 3,0 0,0
17.01.2017 12:00:00 -0,1 -2,6 4 2 19 10 O 1037,6 - 0,0
17.01.2017 11:00:00 -1,7 -2,7 13 7 18 10 OZO 1037,1 - 0,0
17.01.2017 10:00:00 -1,9 -2,6 5 3 13 7 O 1036,6 3,0 0,0
17.01.2017 09:00:00 -2,0 -2,6 4 2 21 12 OZO 1036,0 - 0,0
17.01.2017 08:00:00 -1,5 -2,1 8 4 14 7 O 1035,6 - 0,0
17.01.2017 07:00:00 -1,3 -1,9 3 1 18 10 O 1035,0 - 0,0
17.01.2017 06:00:00 -1,2 -1,8 9 5 22 12 O 1034,4 - 0,0
17.01.2017 05:00:00 -0,7 -1,1 13 7 22 12 OZO 1033,8 - 0,0
17.01.2017 04:00:00 -0,5 -0,8 10 6 29 15 OZO 1033,8 - 0,0
17.01.2017 03:00:00 -0,7 -1,0 13 7 24 13 O 1033,6 - 0,0
17.01.2017 02:00:00 -0,6 -1,3 9 5 16 8 ZO 1033,0 - 0,0
17.01.2017 01:00:00 0,5 -0,4 8 5 18 10 O 1032,8 4,0 0,0
17.01.2017 00:00:00 1,2 0,0 11 6 20 11 O 1032,5 - 0,0
16.01.2017 23:00:00 1,6 0,3 9 5 26 14 O 1032,1 - 0,0
16.01.2017 22:00:00 1,7 0,7 13 7 24 13 O 1031,5 - 0,0
16.01.2017 21:00:00 2,1 1,4 9 5 15 8 O 1030,8 - 0,2
16.01.2017 20:00:00 2,0 1,3 0 0 8 5 N 1030,1 4,0 0,0
16.01.2017 19:00:00 2,4 1,5 3 2 6 3 NO 1029,5 - 0,0
16.01.2017 18:00:00 2,4 1,5 0 0 5 3 N 1029,0 - 0,0
16.01.2017 17:00:00 2,5 1,8 0 0 9 5 N 1028,7 - 0,0
16.01.2017 16:00:00 2,4 1,7 2 1 6 3 ZZO 1028,4 - 0,0
16.01.2017 15:00:00 2,1 1,7 2 1 8 4 NW 1028,1 - 0,0
16.01.2017 14:00:00 1,6 1,3 4 2 9 5 WZW 1028,1 - 0,0
16.01.2017 13:00:00 1,4 1,3 4 2 8 4 Z 1028,2 - 0,0
16.01.2017 12:00:00 0,5 0,4 3 2 12 7 WZW 1028,3 - 0,0
16.01.2017 11:00:00 0,4 0,3 6 4 13 7 ZW 1028,3 - 0,0
16.01.2017 10:00:00 0,1 0,0 4 2 9 5 ZO 1027,9 - 0,0
16.01.2017 09:00:00 0,2 0,1 6 3 12 7 ZZW 1027,5 - 0,0
16.01.2017 08:00:00 0,2 0,1 4 2 13 7 ZZW 1026,8 - 0,0
16.01.2017 07:00:00 0,4 0,3 8 4 22 12 OZO 1026,2 6 0,0
16.01.2017 06:00:00 0,3 0,2 9 5 21 12 O 1026,0 - 0,0
16.01.2017 05:00:00 0,3 0,2 10 6 19 10 O 1025,6 - 0,0
16.01.2017 04:00:00 0,6 0,3 5 3 16 9 O 1025,6 4,0 0,0
16.01.2017 03:00:00 0,9 0,6 6 3 25 13 OZO 1025,0 - 0,0
16.01.2017 02:00:00 1,2 0,9 13 7 24 13 O 1024,5 - 0,0
16.01.2017 01:00:00 1,6 1,2 11 6 24 13 O 1024,3 - 0,0
16.01.2017 00:00:00 2,1 1,7 5 3 16 9 O 1023,5 - 0,0
15.01.2017 23:00:00 2,7 2,4 7 4 18 10 ZO 1022,6 - 0,0
15.01.2017 22:00:00 2,7 2,4 6 3 13 7 OZO 1022,3 4,0 0,0
15.01.2017 21:00:00 2,8 2,5 9 5 18 10 ZO 1021,6 - 0,2
15.01.2017 20:00:00 3,0 2,7 10 6 15 8 ZO 1021,3 - 0,0
15.01.2017 19:00:00 3,2 2,9 9 5 18 10 ZZO 1020,6 4,0 0,0
15.01.2017 18:00:00 3,1 2,8 13 7 26 14 ZZO 1020,3 - 0,0
15.01.2017 17:00:00 3,0 2,6 16 9 29 15 ZZO 1020,2 - 0,4
15.01.2017 16:00:00 3,5 3,1 16 8 32 17 ZZO 1020,5 4,0 0,8
15.01.2017 15:00:00 3,9 3,3 16 9 35 19 Z 1020,8 - 0,6
15.01.2017 14:00:00 3,6 2,6 14 8 30 16 Z 1021,6 - 0,8
15.01.2017 13:00:00 3,2 2,2 13 7 23 13 ZZW 1022,5 12 0,6
15.01.2017 12:00:00 3,0 1,7 14 7 23 13 WZW 1023,5 - 0,6
15.01.2017 11:00:00 3,1 1,0 15 8 30 16 W 1023,9 - 0,0

tt = temperatuur
td = dauwpunt
ff = windsnelheid
fx = windstoten
dd = windrichting
ppp = luchtdruk
vv = zicht
rr = neerslag

Weerstations in de omgeving